Time,TemperatureF,DewpointF,PressureIn,WindDirection,WindDirectionDegrees,WindSpeedMPH,WindSpeedGustMPH,Humidity,HourlyPrecipIn,Conditions,Clouds,dailyrainin,SoftwareType,DateUTC
2013-10-28 00:01:00,47.5,25.5,29.77,North,0,0.0,0.0,42,0.00,,,0.00,WUHU216HW,2013-10-28 07:01:00,
2013-10-28 00:06:00,47.3,25.3,29.77,North,0,0.0,0.0,42,0.00,,,0.00,WUHU216HW,2013-10-28 07:06:00,
2013-10-28 00:11:00,47.2,25.1,29.77,North,0,0.0,0.0,42,0.00,,,0.00,WUHU216HW,2013-10-28 07:11:00,
2013-10-28 00:16:00,47.2,25.7,29.77,North,0,0.0,0.0,43,0.00,,,0.00,WUHU216HW,2013-10-28 07:16:00,
2013-10-28 00:21:00,47.2,25.7,29.77,North,0,0.0,0.0,43,0.00,,,0.00,WUHU216HW,2013-10-28 07:21:00,
2013-10-28 00:26:00,47.2,25.7,29.77,North,0,0.0,0.0,43,0.00,,,0.00,WUHU216HW,2013-10-28 07:26:00,
2013-10-28 00:31:00,47.2,25.1,29.77,North,0,0.0,0.0,42,0.00,,,0.00,WUHU216HW,2013-10-28 07:31:00,
2013-10-28 00:36:00,47.3,25.8,29.76,North,0,0.0,0.0,43,0.00,,,0.00,WUHU216HW,2013-10-28 07:36:00,
2013-10-28 00:41:00,47.5,25.5,29.76,North,0,0.0,0.0,42,0.00,,,0.00,WUHU216HW,2013-10-28 07:41:00,
2013-10-28 00:46:00,47.7,25.7,29.76,North,0,0.0,0.0,42,0.00,,,0.00,WUHU216HW,2013-10-28 07:46:00,
2013-10-28 00:51:00,47.5,25.5,29.76,North,0,0.0,0.0,42,0.00,,,0.00,WUHU216HW,2013-10-28 07:51:00,
2013-10-28 00:56:00,47.3,25.3,29.76,North,0,0.0,0.0,42,0.00,,,0.00,WUHU216HW,2013-10-28 07:56:00,
2013-10-28 01:01:00,47.3,25.3,29.76,North,0,0.0,0.0,42,0.00,,,0.00,WUHU216HW,2013-10-28 08:01:00,
2013-10-28 01:06:00,47.2,25.1,29.76,North,0,0.0,0.0,42,0.00,,,0.00,WUHU216HW,2013-10-28 08:06:00,
2013-10-28 01:11:00,47.0,24.9,29.76,North,0,0.0,0.0,42,0.00,,,0.00,WUHU216HW,2013-10-28 08:11:00,
2013-10-28 01:16:00,46.8,24.9,29.76,North,0,0.0,0.0,42,0.00,,,0.00,WUHU216HW,2013-10-28 08:16:00,
2013-10-28 01:21:00,46.8,24.9,29.76,North,0,0.0,0.0,42,0.00,,,0.00,WUHU216HW,2013-10-28 08:21:00,
2013-10-28 01:26:00,46.8,24.9,29.76,North,0,0.0,0.0,42,0.00,,,0.00,WUHU216HW,2013-10-28 08:26:00,
2013-10-28 01:31:00,46.6,24.7,29.76,North,0,0.0,0.0,42,0.00,,,0.00,WUHU216HW,2013-10-28 08:31:00,
2013-10-28 01:36:00,46.8,24.9,29.76,North,0,0.0,0.0,42,0.00,,,0.00,WUHU216HW,2013-10-28 08:36:00,
2013-10-28 01:41:00,46.6,24.7,29.76,North,0,0.0,0.0,42,0.00,,,0.00,WUHU216HW,2013-10-28 08:41:00,
2013-10-28 01:46:00,46.6,24.7,29.76,North,0,0.0,0.0,42,0.00,,,0.00,WUHU216HW,2013-10-28 08:46:00,
2013-10-28 01:51:00,46.8,24.9,29.76,North,0,0.0,0.0,42,0.00,,,0.00,WUHU216HW,2013-10-28 08:51:00,
2013-10-28 01:55:00,47.0,24.9,29.76,North,0,0.0,0.0,42,0.00,,,0.00,WUHU216HW,2013-10-28 08:55:00,
2013-10-28 02:00:00,47.2,24.6,29.76,North,0,0.0,0.0,41,0.00,,,0.00,WUHU216HW,2013-10-28 09:00:00,
2013-10-28 02:05:00,47.2,24.6,29.76,North,0,0.0,0.0,41,0.00,,,0.00,WUHU216HW,2013-10-28 09:05:00,
2013-10-28 02:10:00,47.2,24.6,29.76,North,0,0.0,0.0,41,0.00,,,0.00,WUHU216HW,2013-10-28 09:10:00,
2013-10-28 02:16:00,47.0,24.4,29.76,North,0,0.0,0.0,41,0.00,,,0.00,WUHU216HW,2013-10-28 09:16:00,
2013-10-28 02:21:00,46.8,24.3,29.76,North,0,0.0,0.0,41,0.00,,,0.00,WUHU216HW,2013-10-28 09:21:00,
2013-10-28 02:26:00,46.8,24.9,29.76,North,0,0.0,0.0,42,0.00,,,0.00,WUHU216HW,2013-10-28 09:26:00,
2013-10-28 02:31:00,46.6,24.7,29.76,North,0,0.0,0.0,42,0.00,,,0.00,WUHU216HW,2013-10-28 09:31:00,
2013-10-28 02:36:00,46.4,24.5,29.76,North,0,0.0,0.0,42,0.00,,,0.00,WUHU216HW,2013-10-28 09:36:00,
2013-10-28 02:41:00,46.1,24.1,29.75,North,0,0.0,0.0,42,0.00,,,0.00,WUHU216HW,2013-10-28 09:41:00,
2013-10-28 02:46:00,45.9,24.0,29.75,North,0,0.0,0.0,42,0.00,,,0.00,WUHU216HW,2013-10-28 09:46:00,
2013-10-28 02:51:00,45.7,23.9,29.75,North,0,0.0,0.0,42,0.00,,,0.00,WUHU216HW,2013-10-28 09:51:00,
2013-10-28 02:56:00,45.7,24.4,29.75,North,0,0.0,0.0,43,0.00,,,0.00,WUHU216HW,2013-10-28 09:56:00,
2013-10-28 03:00:00,45.5,24.2,29.75,North,0,0.0,0.0,43,0.00,,,0.00,WUHU216HW,2013-10-28 10:00:00,
2013-10-28 03:06:00,45.4,24.0,29.75,North,0,0.0,0.0,43,0.00,,,0.00,WUHU216HW,2013-10-28 10:06:00,
2013-10-28 03:11:00,45.4,24.0,29.75,North,0,0.0,0.0,43,0.00,,,0.00,WUHU216HW,2013-10-28 10:11:00,
2013-10-28 03:16:00,45.0,23.8,29.75,North,0,0.0,0.0,43,0.00,,,0.00,WUHU216HW,2013-10-28 10:16:00,
2013-10-28 03:21:00,44.6,23.9,29.75,North,0,0.0,0.0,44,0.00,,,0.00,WUHU216HW,2013-10-28 10:21:00,
2013-10-28 03:25:00,44.3,23.6,29.74,North,0,0.0,0.0,44,0.00,,,0.00,WUHU216HW,2013-10-28 10:25:00,
2013-10-28 03:30:00,44.3,23.6,29.75,North,0,0.0,0.0,44,0.00,,,0.00,WUHU216HW,2013-10-28 10:30:00,
2013-10-28 03:35:00,43.9,23.9,29.74,North,0,0.0,0.0,45,0.00,,,0.00,WUHU216HW,2013-10-28 10:35:00,
2013-10-28 03:40:00,43.9,23.9,29.74,North,0,0.0,0.0,45,0.00,,,0.00,WUHU216HW,2013-10-28 10:40:00,
2013-10-28 03:45:00,43.9,23.9,29.74,North,0,0.0,0.0,45,0.00,,,0.00,WUHU216HW,2013-10-28 10:45:00,
2013-10-28 03:50:00,43.7,23.7,29.74,North,0,0.0,0.0,45,0.00,,,0.00,WUHU216HW,2013-10-28 10:50:00,
2013-10-28 03:55:00,43.4,23.9,29.74,North,0,0.0,0.0,46,0.00,,,0.00,WUHU216HW,2013-10-28 10:55:00,
2013-10-28 04:00:00,43.6,24.0,29.74,North,0,0.0,0.0,46,0.00,,,0.00,WUHU216HW,2013-10-28 11:00:00,
2013-10-28 04:05:00,43.7,24.2,29.74,North,0,0.0,0.0,46,0.00,,,0.00,WUHU216HW,2013-10-28 11:05:00,
2013-10-28 04:10:00,43.9,24.4,29.74,North,0,0.0,0.0,46,0.00,,,0.00,WUHU216HW,2013-10-28 11:10:00,
2013-10-28 04:15:00,44.1,24.6,29.74,North,0,0.0,0.0,46,0.00,,,0.00,WUHU216HW,2013-10-28 11:15:00,
2013-10-28 04:20:00,44.1,24.6,29.75,North,0,0.0,0.0,46,0.00,,,0.00,WUHU216HW,2013-10-28 11:20:00,
2013-10-28 04:25:00,44.3,24.1,29.75,North,0,0.0,0.0,45,0.00,,,0.00,WUHU216HW,2013-10-28 11:25:00,
2013-10-28 04:30:00,44.3,24.1,29.75,North,0,0.0,0.0,45,0.00,,,0.00,WUHU216HW,2013-10-28 11:30:00,
2013-10-28 04:35:00,44.1,24.0,29.74,North,0,0.0,0.0,45,0.00,,,0.00,WUHU216HW,2013-10-28 11:35:00,
2013-10-28 04:40:00,43.9,23.9,29.74,North,0,0.0,0.0,45,0.00,,,0.00,WUHU216HW,2013-10-28 11:40:00,
2013-10-28 04:45:00,43.9,24.4,29.75,North,0,0.0,0.0,46,0.00,,,0.00,WUHU216HW,2013-10-28 11:45:00,
2013-10-28 04:50:00,44.1,24.6,29.75,North,0,0.0,0.0,46,0.00,,,0.00,WUHU216HW,2013-10-28 11:50:00,
2013-10-28 04:55:00,44.3,24.7,29.75,North,0,0.0,0.0,46,0.00,,,0.00,WUHU216HW,2013-10-28 11:55:00,
2013-10-28 05:00:00,44.1,24.6,29.76,North,0,0.0,0.0,46,0.00,,,0.00,WUHU216HW,2013-10-28 12:00:00,
2013-10-28 05:05:00,44.3,24.7,29.75,North,0,0.0,0.0,46,0.00,,,0.00,WUHU216HW,2013-10-28 12:05:00,
2013-10-28 05:10:00,43.9,24.4,29.76,North,0,0.0,0.0,46,0.00,,,0.00,WUHU216HW,2013-10-28 12:10:00,
2013-10-28 05:15:00,43.6,24.0,29.75,North,0,0.0,0.0,46,0.00,,,0.00,WUHU216HW,2013-10-28 12:15:00,
2013-10-28 05:20:00,43.6,24.0,29.75,North,0,0.0,0.0,46,0.00,,,0.00,WUHU216HW,2013-10-28 12:20:00,
2013-10-28 05:25:00,43.6,24.6,29.75,North,0,0.0,0.0,47,0.00,,,0.00,WUHU216HW,2013-10-28 12:25:00,
2013-10-28 05:30:00,43.9,24.9,29.74,North,0,0.0,0.0,47,0.00,,,0.00,WUHU216HW,2013-10-28 12:30:00,
2013-10-28 05:35:00,43.9,24.9,29.74,North,0,0.0,0.0,47,0.00,,,0.00,WUHU216HW,2013-10-28 12:35:00,
2013-10-28 05:40:00,44.5,25.4,29.73,North,0,0.0,0.0,47,0.00,,,0.00,WUHU216HW,2013-10-28 12:40:00,
2013-10-28 05:45:00,44.8,25.8,29.73,North,0,0.0,0.0,47,0.00,,,0.00,WUHU216HW,2013-10-28 12:45:00,
2013-10-28 05:50:00,44.8,25.2,29.73,North,0,0.0,0.0,46,0.00,,,0.00,WUHU216HW,2013-10-28 12:50:00,
2013-10-28 05:55:00,44.8,25.2,29.74,North,0,0.0,0.0,46,0.00,,,0.00,WUHU216HW,2013-10-28 12:55:00,
2013-10-28 06:00:00,44.6,25.0,29.74,North,0,0.0,0.0,46,0.00,,,0.00,WUHU216HW,2013-10-28 13:00:00,
2013-10-28 06:05:00,44.6,25.0,29.75,North,0,0.0,0.0,46,0.00,,,0.00,WUHU216HW,2013-10-28 13:05:00,
2013-10-28 06:10:00,44.6,24.5,29.75,North,0,0.0,0.0,45,0.00,,,0.00,WUHU216HW,2013-10-28 13:10:00,
2013-10-28 06:15:00,44.5,24.3,29.75,North,0,0.0,0.0,45,0.00,,,0.00,WUHU216HW,2013-10-28 13:15:00,
2013-10-28 06:20:00,44.5,24.3,29.75,North,0,0.0,0.0,45,0.00,,,0.00,WUHU216HW,2013-10-28 13:20:00,
2013-10-28 06:25:00,44.5,24.3,29.76,North,0,0.0,0.0,45,0.00,,,0.00,WUHU216HW,2013-10-28 13:25:00,
2013-10-28 06:30:00,44.5,24.3,29.75,North,0,0.0,0.0,45,0.00,,,0.00,WUHU216HW,2013-10-28 13:30:00,
2013-10-28 06:35:00,44.3,24.1,29.75,North,0,0.0,0.0,45,0.00,,,0.00,WUHU216HW,2013-10-28 13:35:00,
2013-10-28 06:40:00,44.3,24.1,29.75,North,0,0.0,0.0,45,0.00,,,0.00,WUHU216HW,2013-10-28 13:40:00,
2013-10-28 06:45:00,44.1,24.6,29.75,North,0,0.0,0.0,46,0.00,,,0.00,WUHU216HW,2013-10-28 13:45:00,
2013-10-28 06:50:00,44.1,24.6,29.74,North,0,0.0,0.0,46,0.00,,,0.00,WUHU216HW,2013-10-28 13:50:00,
2013-10-28 06:55:00,44.1,24.6,29.75,North,0,0.0,0.0,46,0.00,,,0.00,WUHU216HW,2013-10-28 13:55:00,
2013-10-28 07:00:00,44.1,24.6,29.76,North,0,0.0,0.0,46,0.00,,,0.00,WUHU216HW,2013-10-28 14:00:00,
2013-10-28 07:05:00,44.1,24.6,29.76,North,0,0.0,0.0,46,0.00,,,0.00,WUHU216HW,2013-10-28 14:05:00,
2013-10-28 07:10:00,44.3,24.7,29.76,North,0,0.0,0.0,46,0.00,,,0.00,WUHU216HW,2013-10-28 14:10:00,
2013-10-28 07:15:00,44.3,24.1,29.76,North,0,0.0,0.0,45,0.00,,,0.00,WUHU216HW,2013-10-28 14:15:00,
2013-10-28 07:20:00,44.3,24.1,29.76,North,0,0.0,0.0,45,0.00,,,0.00,WUHU216HW,2013-10-28 14:20:00,
2013-10-28 07:25:00,44.6,24.5,29.76,North,0,0.0,0.0,45,0.00,,,0.00,WUHU216HW,2013-10-28 14:25:00,
2013-10-28 07:30:00,44.8,24.7,29.77,North,0,0.0,0.0,45,0.00,,,0.00,WUHU216HW,2013-10-28 14:30:00,
2013-10-28 07:35:00,45.2,24.9,29.77,North,0,0.0,0.0,45,0.00,,,0.00,WUHU216HW,2013-10-28 14:35:00,
2013-10-28 07:40:00,45.4,24.6,29.78,North,0,0.0,0.0,44,0.00,,,0.00,WUHU216HW,2013-10-28 14:40:00,
2013-10-28 07:45:00,45.5,24.8,29.78,North,0,0.0,0.0,44,0.00,,,0.00,WUHU216HW,2013-10-28 14:45:00,
2013-10-28 07:50:00,45.9,25.1,29.77,North,0,0.0,0.0,44,0.00,,,0.00,WUHU216HW,2013-10-28 14:50:00,
2013-10-28 07:55:00,46.4,25.6,29.77,North,0,0.0,0.0,44,0.00,,,0.00,WUHU216HW,2013-10-28 14:55:00,
2013-10-28 08:00:00,46.6,25.8,29.76,North,0,0.0,0.0,44,0.00,,,0.00,WUHU216HW,2013-10-28 15:00:00,
2013-10-28 08:05:00,47.2,26.2,29.77,North,0,0.0,0.0,44,0.00,,,0.00,WUHU216HW,2013-10-28 15:05:00,
2013-10-28 08:10:00,48.4,26.8,29.77,North,0,0.0,0.0,43,0.00,,,0.00,WUHU216HW,2013-10-28 15:10:00,
2013-10-28 08:15:00,49.1,26.9,29.77,North,0,0.0,0.0,42,0.00,,,0.00,WUHU216HW,2013-10-28 15:15:00,
2013-10-28 08:20:00,49.9,27.6,29.77,North,0,0.0,0.0,42,0.00,,,0.00,WUHU216HW,2013-10-28 15:20:00,
2013-10-28 08:25:00,50.2,27.9,29.77,North,0,0.0,0.0,42,0.00,,,0.00,WUHU216HW,2013-10-28 15:25:00,
2013-10-28 08:30:00,50.6,28.3,29.77,North,0,0.0,0.0,42,0.00,,,0.00,WUHU216HW,2013-10-28 15:30:00,
2013-10-28 08:35:00,50.8,28.5,29.78,North,0,0.0,0.0,42,0.00,,,0.00,WUHU216HW,2013-10-28 15:35:00,
2013-10-28 08:40:00,50.6,28.3,29.78,North,0,0.0,0.0,42,0.00,,,0.00,WUHU216HW,2013-10-28 15:40:00,
2013-10-28 08:45:00,50.6,28.3,29.78,North,0,0.0,0.0,42,0.00,,,0.00,WUHU216HW,2013-10-28 15:45:00,
2013-10-28 08:50:00,51.1,28.7,29.78,North,0,0.0,0.0,42,0.00,,,0.00,WUHU216HW,2013-10-28 15:50:00,
2013-10-28 08:55:00,51.1,28.2,29.78,North,0,0.0,0.0,41,0.00,,,0.00,WUHU216HW,2013-10-28 15:55:00,
2013-10-28 09:00:00,51.7,29.3,29.78,North,0,0.0,0.0,42,0.00,,,0.00,WUHU216HW,2013-10-28 16:00:00,
2013-10-28 09:05:00,51.1,28.2,29.78,North,0,0.0,0.0,41,0.00,,,0.00,WUHU216HW,2013-10-28 16:05:00,
2013-10-28 09:10:00,51.5,28.5,29.78,North,0,0.0,0.0,41,0.00,,,0.00,WUHU216HW,2013-10-28 16:10:00,
2013-10-28 09:15:00,51.5,28.5,29.78,North,0,0.0,0.0,41,0.00,,,0.00,WUHU216HW,2013-10-28 16:15:00,
2013-10-28 09:20:00,52.0,29.0,29.78,North,0,0.0,0.0,41,0.00,,,0.00,WUHU216HW,2013-10-28 16:20:00,
2013-10-28 09:25:00,52.2,29.2,29.78,North,0,0.0,0.0,41,0.00,,,0.00,WUHU216HW,2013-10-28 16:25:00,
2013-10-28 09:30:00,52.6,28.9,29.78,North,0,0.0,0.0,40,0.00,,,0.00,WUHU216HW,2013-10-28 16:30:00,
2013-10-28 09:35:00,52.0,28.5,29.78,North,0,0.0,0.0,40,0.00,,,0.00,WUHU216HW,2013-10-28 16:35:00,
2013-10-28 09:40:00,52.7,29.1,29.78,North,0,0.0,0.0,40,0.00,,,0.00,WUHU216HW,2013-10-28 16:40:00,
2013-10-28 09:45:00,52.6,28.9,29.78,North,0,0.0,0.0,40,0.00,,,0.00,WUHU216HW,2013-10-28 16:45:00,
2013-10-28 09:50:00,52.2,28.6,29.78,North,0,0.0,0.0,40,0.00,,,0.00,WUHU216HW,2013-10-28 16:50:00,
2013-10-28 09:55:00,52.4,28.7,29.78,North,0,0.0,0.0,40,0.00,,,0.00,WUHU216HW,2013-10-28 16:55:00,
2013-10-28 10:00:00,52.0,28.5,29.78,North,0,0.0,0.0,40,0.00,,,0.00,WUHU216HW,2013-10-28 17:00:00,
2013-10-28 10:05:00,52.2,29.2,29.78,North,0,0.0,0.0,41,0.00,,,0.00,WUHU216HW,2013-10-28 17:05:00,
2013-10-28 10:10:00,52.4,28.7,29.78,North,0,0.0,0.0,40,0.00,,,0.00,WUHU216HW,2013-10-28 17:10:00,
2013-10-28 10:15:00,52.7,29.1,29.78,North,0,0.0,0.0,40,0.00,,,0.00,WUHU216HW,2013-10-28 17:15:00,
2013-10-28 10:20:00,53.1,29.4,29.78,North,0,0.0,0.0,40,0.00,,,0.00,WUHU216HW,2013-10-28 17:20:00,
2013-10-28 10:25:00,53.6,29.2,29.78,North,0,0.0,0.0,39,0.00,,,0.00,WUHU216HW,2013-10-28 17:25:00,
2013-10-28 10:30:00,54.0,29.5,29.78,North,0,0.0,0.0,39,0.00,,,0.00,WUHU216HW,2013-10-28 17:30:00,
2013-10-28 10:35:00,54.2,29.0,29.78,North,0,0.0,0.0,38,0.00,,,0.00,WUHU216HW,2013-10-28 17:35:00,
2013-10-28 10:40:00,53.5,28.4,29.78,North,0,0.0,0.0,38,0.00,,,0.00,WUHU216HW,2013-10-28 17:40:00,
2013-10-28 10:45:00,53.8,28.7,29.78,North,0,0.0,0.0,38,0.00,,,0.00,WUHU216HW,2013-10-28 17:45:00,
2013-10-28 10:50:00,53.6,28.5,29.79,North,0,0.0,0.0,38,0.00,,,0.00,WUHU216HW,2013-10-28 17:50:00,
2013-10-28 10:55:00,53.6,28.5,29.78,North,0,0.0,0.0,38,0.00,,,0.00,WUHU216HW,2013-10-28 17:55:00,
2013-10-28 11:00:00,54.0,28.2,29.78,North,0,0.0,0.0,37,0.00,,,0.00,WUHU216HW,2013-10-28 18:00:00,
2013-10-28 11:05:00,54.0,28.2,29.78,North,0,0.0,0.0,37,0.00,,,0.00,WUHU216HW,2013-10-28 18:05:00,
2013-10-28 11:10:00,54.4,28.4,29.78,North,0,0.0,0.0,37,0.00,,,0.00,WUHU216HW,2013-10-28 18:10:00,
2013-10-28 11:15:00,54.7,28.8,29.78,North,0,0.0,0.0,37,0.00,,,0.00,WUHU216HW,2013-10-28 18:15:00,
2013-10-28 11:20:00,54.7,28.1,29.78,North,0,0.0,0.0,36,0.00,,,0.00,WUHU216HW,2013-10-28 18:20:00,
2013-10-28 11:25:00,54.9,28.3,29.79,North,0,0.0,0.0,36,0.00,,,0.00,WUHU216HW,2013-10-28 18:25:00,
2013-10-28 11:30:00,54.7,28.1,29.78,North,0,0.0,0.0,36,0.00,,,0.00,WUHU216HW,2013-10-28 18:30:00,
2013-10-28 11:35:00,54.4,27.7,29.78,North,0,0.0,0.0,36,0.00,,,0.00,WUHU216HW,2013-10-28 18:35:00,
2013-10-28 11:40:00,54.4,27.7,29.78,North,0,0.0,0.0,36,0.00,,,0.00,WUHU216HW,2013-10-28 18:40:00,
2013-10-28 11:45:00,54.7,28.1,29.78,North,0,0.0,0.0,36,0.00,,,0.00,WUHU216HW,2013-10-28 18:45:00,
2013-10-28 11:50:00,54.5,27.9,29.77,North,0,0.0,0.0,36,0.00,,,0.00,WUHU216HW,2013-10-28 18:50:00,
2013-10-28 11:55:00,55.1,28.4,29.77,North,0,0.0,0.0,36,0.00,,,0.00,WUHU216HW,2013-10-28 18:55:00,
2013-10-28 12:00:00,54.9,28.3,29.77,North,0,0.0,0.0,36,0.00,,,0.00,WUHU216HW,2013-10-28 19:00:00,
2013-10-28 12:05:00,54.9,28.9,29.77,North,0,0.0,0.0,37,0.00,,,0.00,WUHU216HW,2013-10-28 19:05:00,
2013-10-28 12:10:00,55.4,28.7,29.76,North,0,0.0,0.0,36,0.00,,,0.00,WUHU216HW,2013-10-28 19:10:00,
2013-10-28 12:15:00,55.4,28.7,29.76,North,0,0.0,0.0,36,0.00,,,0.00,WUHU216HW,2013-10-28 19:15:00,
2013-10-28 12:20:00,55.4,28.7,29.76,North,0,0.0,0.0,36,0.00,,,0.00,WUHU216HW,2013-10-28 19:20:00,
2013-10-28 12:25:00,55.4,28.7,29.76,North,0,0.0,0.0,36,0.00,,,0.00,WUHU216HW,2013-10-28 19:25:00,
2013-10-28 12:30:00,55.4,29.4,29.75,North,0,0.0,0.0,37,0.00,,,0.00,WUHU216HW,2013-10-28 19:30:00,
2013-10-28 12:35:00,55.4,29.4,29.75,North,0,0.0,0.0,37,0.00,,,0.00,WUHU216HW,2013-10-28 19:35:00,
2013-10-28 12:40:00,55.3,29.3,29.75,North,0,0.0,0.0,37,0.00,,,0.00,WUHU216HW,2013-10-28 19:40:00,
2013-10-28 12:45:00,55.4,29.4,29.75,North,0,0.0,0.0,37,0.00,,,0.00,WUHU216HW,2013-10-28 19:45:00,
2013-10-28 12:50:00,55.6,29.5,29.75,North,0,0.0,0.0,37,0.00,,,0.00,WUHU216HW,2013-10-28 19:50:00,
2013-10-28 12:55:00,55.6,29.5,29.75,North,0,0.0,0.0,37,0.00,,,0.00,WUHU216HW,2013-10-28 19:55:00,
2013-10-28 13:00:00,55.3,29.3,29.74,North,0,0.0,0.0,37,0.00,,,0.00,WUHU216HW,2013-10-28 20:00:00,
2013-10-28 13:05:00,55.4,29.4,29.75,North,0,0.0,0.0,37,0.00,,,0.00,WUHU216HW,2013-10-28 20:05:00,
2013-10-28 13:10:00,55.6,29.5,29.74,North,0,0.0,0.0,37,0.00,,,0.00,WUHU216HW,2013-10-28 20:10:00,
2013-10-28 13:15:00,55.8,30.4,29.75,North,0,0.0,0.0,38,0.00,,,0.00,WUHU216HW,2013-10-28 20:15:00,
2013-10-28 13:20:00,56.2,30.1,29.75,North,0,0.0,0.0,37,0.00,,,0.00,WUHU216HW,2013-10-28 20:20:00,
2013-10-28 13:25:00,56.0,30.6,29.74,North,0,0.0,0.0,38,0.00,,,0.00,WUHU216HW,2013-10-28 20:25:00,
2013-10-28 13:30:00,56.3,30.9,29.74,North,0,0.0,0.0,38,0.00,,,0.00,WUHU216HW,2013-10-28 20:30:00,
2013-10-28 13:35:00,56.9,30.7,29.75,North,0,0.0,0.0,37,0.00,,,0.00,WUHU216HW,2013-10-28 20:35:00,
2013-10-28 13:40:00,56.2,30.1,29.74,North,0,0.0,0.0,37,0.00,,,0.00,WUHU216HW,2013-10-28 20:40:00,
2013-10-28 13:45:00,55.3,30.0,29.74,North,0,0.0,0.0,38,0.00,,,0.00,WUHU216HW,2013-10-28 20:45:00,
2013-10-28 13:50:00,55.3,30.0,29.74,North,0,0.0,0.0,38,0.00,,,0.00,WUHU216HW,2013-10-28 20:50:00,
2013-10-28 13:55:00,55.6,29.5,29.75,North,0,0.0,0.0,37,0.00,,,0.00,WUHU216HW,2013-10-28 20:55:00,
2013-10-28 14:00:00,55.4,29.4,29.75,North,0,0.0,0.0,37,0.00,,,0.00,WUHU216HW,2013-10-28 21:00:00,
2013-10-28 14:05:00,56.2,30.1,29.75,North,0,0.0,0.0,37,0.00,,,0.00,WUHU216HW,2013-10-28 21:05:00,
2013-10-28 14:10:00,56.0,29.2,29.75,North,0,0.0,0.0,36,0.00,,,0.00,WUHU216HW,2013-10-28 21:10:00,
2013-10-28 14:15:00,56.0,28.4,29.75,North,0,0.0,0.0,35,0.00,,,0.00,WUHU216HW,2013-10-28 21:15:00,
2013-10-28 14:20:00,55.8,29.0,29.75,North,0,0.0,0.0,36,0.00,,,0.00,WUHU216HW,2013-10-28 21:20:00,
2013-10-28 14:25:00,55.1,29.1,29.75,North,0,0.0,0.0,37,0.00,,,0.00,WUHU216HW,2013-10-28 21:25:00,
2013-10-28 14:30:00,54.7,29.4,29.75,North,0,0.0,0.0,38,0.00,,,0.00,WUHU216HW,2013-10-28 21:30:00,
2013-10-28 14:35:00,55.3,29.3,29.75,North,0,0.0,0.0,37,0.00,,,0.00,WUHU216HW,2013-10-28 21:35:00,
2013-10-28 14:40:00,55.3,29.3,29.76,North,0,0.0,0.0,37,0.00,,,0.00,WUHU216HW,2013-10-28 21:40:00,
2013-10-28 14:45:00,55.6,29.5,29.75,North,0,0.0,0.0,37,0.00,,,0.00,WUHU216HW,2013-10-28 21:45:00,
2013-10-28 14:50:00,55.8,29.0,29.75,North,0,0.0,0.0,36,0.00,,,0.00,WUHU216HW,2013-10-28 21:50:00,
2013-10-28 14:55:00,55.8,29.0,29.76,North,0,0.0,0.0,36,0.00,,,0.00,WUHU216HW,2013-10-28 21:55:00,
2013-10-28 15:00:00,56.2,29.3,29.75,North,0,0.0,0.0,36,0.00,,,0.00,WUHU216HW,2013-10-28 22:00:00,
2013-10-28 15:05:00,56.3,29.5,29.75,North,0,0.0,0.0,36,0.00,,,0.00,WUHU216HW,2013-10-28 22:05:00,
2013-10-28 15:10:00,56.5,29.7,29.75,North,0,0.0,0.0,36,0.00,,,0.00,WUHU216HW,2013-10-28 22:10:00,
2013-10-28 15:15:00,56.0,29.2,29.75,North,0,0.0,0.0,36,0.00,,,0.00,WUHU216HW,2013-10-28 22:15:00,
2013-10-28 15:20:00,56.5,29.7,29.75,North,0,0.0,0.0,36,0.00,,,0.00,WUHU216HW,2013-10-28 22:20:00,
2013-10-28 15:25:00,57.1,28.7,29.75,North,0,0.0,0.0,34,0.00,,,0.00,WUHU216HW,2013-10-28 22:25:00,
2013-10-28 15:30:00,56.2,28.6,29.75,North,0,0.0,0.0,35,0.00,,,0.00,WUHU216HW,2013-10-28 22:30:00,
2013-10-28 15:35:00,56.2,29.3,29.75,North,0,0.0,0.0,36,0.00,,,0.00,WUHU216HW,2013-10-28 22:35:00,
2013-10-28 15:40:00,55.8,29.0,29.75,North,0,0.0,0.0,36,0.00,,,0.00,WUHU216HW,2013-10-28 22:40:00,
2013-10-28 15:45:00,55.8,29.0,29.75,North,0,0.0,0.0,36,0.00,,,0.00,WUHU216HW,2013-10-28 22:45:00,
2013-10-28 15:50:00,56.3,29.5,29.75,North,0,0.0,0.0,36,0.00,,,0.00,WUHU216HW,2013-10-28 22:50:00,
2013-10-28 15:55:00,56.3,29.5,29.75,North,0,0.0,0.0,36,0.00,,,0.00,WUHU216HW,2013-10-28 22:55:00,
2013-10-28 16:00:00,56.9,29.3,29.75,North,0,0.0,0.0,35,0.00,,,0.00,WUHU216HW,2013-10-28 23:00:00,
2013-10-28 16:05:00,56.9,30.0,29.76,North,0,0.0,0.0,36,0.00,,,0.00,WUHU216HW,2013-10-28 23:05:00,
2013-10-28 16:10:00,55.8,27.6,29.76,North,0,0.0,0.0,34,0.00,,,0.00,WUHU216HW,2013-10-28 23:10:00,
2013-10-28 16:15:00,54.7,28.1,29.76,North,0,0.0,0.0,36,0.00,,,0.00,WUHU216HW,2013-10-28 23:15:00,
2013-10-28 16:20:00,54.4,28.4,29.76,North,0,0.0,0.0,37,0.00,,,0.00,WUHU216HW,2013-10-28 23:20:00,
2013-10-28 16:25:00,53.6,27.8,29.76,North,0,0.0,0.0,37,0.00,,,0.00,WUHU216HW,2013-10-28 23:25:00,
2013-10-28 16:30:00,52.9,27.2,29.76,North,0,0.0,0.0,37,0.00,,,0.00,WUHU216HW,2013-10-28 23:30:00,
2013-10-28 16:35:00,52.2,27.2,29.76,North,0,0.0,0.0,38,0.00,,,0.00,WUHU216HW,2013-10-28 23:35:00,
2013-10-28 16:40:00,51.8,27.5,29.76,North,0,0.0,0.0,39,0.00,,,0.00,WUHU216HW,2013-10-28 23:40:00,
2013-10-28 16:45:00,51.5,27.9,29.76,North,0,0.0,0.0,40,0.00,,,0.00,WUHU216HW,2013-10-28 23:45:00,
2013-10-28 16:50:00,51.3,27.8,29.76,North,0,0.0,0.0,40,0.00,,,0.00,WUHU216HW,2013-10-28 23:50:00,
2013-10-28 16:55:00,50.9,27.5,29.76,North,0,0.0,0.0,40,0.00,,,0.00,WUHU216HW,2013-10-28 23:55:00,
2013-10-28 17:00:00,50.8,27.3,29.76,North,0,0.0,0.0,40,0.00,,,0.00,WUHU216HW,2013-10-29 00:00:00,
2013-10-28 17:05:00,50.4,27.0,29.76,North,0,0.0,0.0,40,0.00,,,0.00,WUHU216HW,2013-10-29 00:05:00,
2013-10-28 17:10:00,50.0,26.6,29.76,North,0,0.0,0.0,40,0.00,,,0.00,WUHU216HW,2013-10-29 00:10:00,
2013-10-28 17:15:00,49.9,25.8,29.76,North,0,0.0,0.0,39,0.00,,,0.00,WUHU216HW,2013-10-29 00:15:00,
2013-10-28 17:20:00,49.5,25.5,29.76,North,0,0.0,0.0,39,0.00,,,0.00,WUHU216HW,2013-10-29 00:20:00,
2013-10-28 17:25:00,49.3,25.3,29.76,North,0,0.0,0.0,39,0.00,,,0.00,WUHU216HW,2013-10-29 00:25:00,
2013-10-28 17:30:00,49.3,26.0,29.76,North,0,0.0,0.0,40,0.00,,,0.00,WUHU216HW,2013-10-29 00:30:00,
2013-10-28 17:35:00,49.1,25.8,29.76,North,0,0.0,0.0,40,0.00,,,0.00,WUHU216HW,2013-10-29 00:35:00,
2013-10-28 17:40:00,49.1,25.8,29.76,North,0,0.0,0.0,40,0.00,,,0.00,WUHU216HW,2013-10-29 00:40:00,
2013-10-28 17:45:00,49.0,25.7,29.76,North,0,0.0,0.0,40,0.00,,,0.00,WUHU216HW,2013-10-29 00:45:00,
2013-10-28 17:50:00,49.0,25.7,29.76,North,0,0.0,0.0,40,0.00,,,0.00,WUHU216HW,2013-10-29 00:50:00,
2013-10-28 17:55:00,49.0,25.7,29.76,North,0,0.0,0.0,40,0.00,,,0.00,WUHU216HW,2013-10-29 00:55:00,
2013-10-28 18:00:00,48.8,25.5,29.76,North,0,0.0,0.0,40,0.00,,,0.00,WUHU216HW,2013-10-29 01:00:00,
2013-10-28 18:05:00,48.8,25.5,29.76,North,0,0.0,0.0,40,0.00,,,0.00,WUHU216HW,2013-10-29 01:05:00,
2013-10-28 18:10:00,48.6,25.9,29.76,North,0,0.0,0.0,41,0.00,,,0.00,WUHU216HW,2013-10-29 01:10:00,
2013-10-28 18:15:00,48.4,25.8,29.76,North,0,0.0,0.0,41,0.00,,,0.00,WUHU216HW,2013-10-29 01:15:00,
2013-10-28 18:20:00,48.2,26.1,29.76,North,0,0.0,0.0,42,0.00,,,0.00,WUHU216HW,2013-10-29 01:20:00,
2013-10-28 18:25:00,47.9,25.7,29.76,North,0,0.0,0.0,42,0.00,,,0.00,WUHU216HW,2013-10-29 01:25:00,
2013-10-28 18:30:00,47.9,26.3,29.76,North,0,0.0,0.0,43,0.00,,,0.00,WUHU216HW,2013-10-29 01:30:00,
2013-10-28 18:35:00,47.9,26.3,29.76,North,0,0.0,0.0,43,0.00,,,0.00,WUHU216HW,2013-10-29 01:35:00,
2013-10-28 18:40:00,47.7,26.7,29.76,North,0,0.0,0.0,44,0.00,,,0.00,WUHU216HW,2013-10-29 01:40:00,
2013-10-28 18:44:00,47.9,26.8,29.76,North,0,0.0,0.0,44,0.00,,,0.00,WUHU216HW,2013-10-29 01:44:00,
2013-10-28 18:49:00,47.9,27.4,29.76,North,0,0.0,0.0,45,0.00,,,0.00,WUHU216HW,2013-10-29 01:49:00,
2013-10-28 18:54:00,47.9,27.4,29.76,North,0,0.0,0.0,45,0.00,,,0.00,WUHU216HW,2013-10-29 01:54:00,
2013-10-28 18:59:00,47.9,27.9,29.76,North,0,0.0,0.0,46,0.00,,,0.00,WUHU216HW,2013-10-29 01:59:00,
2013-10-28 19:04:00,47.9,27.9,29.76,North,0,0.0,0.0,46,0.00,,,0.00,WUHU216HW,2013-10-29 02:04:00,
2013-10-28 19:09:00,47.7,28.4,29.76,North,0,0.0,0.0,47,0.00,,,0.00,WUHU216HW,2013-10-29 02:09:00,
2013-10-28 19:14:00,47.5,28.2,29.76,North,0,0.0,0.0,47,0.00,,,0.00,WUHU216HW,2013-10-29 02:14:00,
2013-10-28 19:19:00,47.7,28.9,29.76,North,0,0.0,0.0,48,0.00,,,0.00,WUHU216HW,2013-10-29 02:19:00,
2013-10-28 19:24:00,47.7,28.9,29.77,North,0,0.0,0.0,48,0.00,,,0.00,WUHU216HW,2013-10-29 02:24:00,
2013-10-28 19:29:00,47.7,29.4,29.77,North,0,0.0,0.0,49,0.00,,,0.00,WUHU216HW,2013-10-29 02:29:00,
2013-10-28 19:34:00,47.7,29.4,29.77,North,0,0.0,0.0,49,0.00,,,0.00,WUHU216HW,2013-10-29 02:34:00,
2013-10-28 19:39:00,47.7,30.0,29.77,North,0,0.0,0.0,50,0.00,,,0.00,WUHU216HW,2013-10-29 02:39:00,
2013-10-28 19:44:00,47.9,30.1,29.77,North,0,0.0,0.0,50,0.00,,,0.00,WUHU216HW,2013-10-29 02:44:00,
2013-10-28 19:49:00,47.9,30.1,29.77,North,0,0.0,0.0,50,0.00,,,0.00,WUHU216HW,2013-10-29 02:49:00,
2013-10-28 19:54:00,47.9,30.1,29.77,North,0,0.0,0.0,50,0.00,,,0.00,WUHU216HW,2013-10-29 02:54:00,
2013-10-28 19:59:00,48.1,30.2,29.77,North,0,0.0,0.0,50,0.00,,,0.00,WUHU216HW,2013-10-29 02:59:00,
2013-10-28 20:04:00,48.1,30.7,29.77,North,0,0.0,0.0,51,0.00,,,0.00,WUHU216HW,2013-10-29 03:04:00,
2013-10-28 20:09:00,48.1,30.7,29.78,North,0,0.0,0.0,51,0.00,,,0.00,WUHU216HW,2013-10-29 03:09:00,
2013-10-28 20:14:00,47.9,30.6,29.78,North,0,0.0,0.0,51,0.00,,,0.00,WUHU216HW,2013-10-29 03:14:00,
2013-10-28 20:19:00,47.9,31.1,29.78,North,0,0.0,0.0,52,0.00,,,0.00,WUHU216HW,2013-10-29 03:19:00,
2013-10-28 20:24:00,47.7,30.9,29.78,North,0,0.0,0.0,52,0.00,,,0.00,WUHU216HW,2013-10-29 03:24:00,
2013-10-28 20:29:00,47.5,30.7,29.78,North,0,0.0,0.0,52,0.00,,,0.00,WUHU216HW,2013-10-29 03:29:00,
2013-10-28 20:34:00,47.5,30.7,29.78,North,0,0.0,0.0,52,0.00,,,0.00,WUHU216HW,2013-10-29 03:34:00,
2013-10-28 20:39:00,47.5,30.7,29.78,North,0,0.0,0.0,52,0.00,,,0.00,WUHU216HW,2013-10-29 03:39:00,
2013-10-28 20:44:00,47.3,30.5,29.78,North,0,0.0,0.0,52,0.00,,,0.00,WUHU216HW,2013-10-29 03:44:00,
2013-10-28 20:49:00,47.3,31.0,29.78,North,0,0.0,0.0,53,0.00,,,0.00,WUHU216HW,2013-10-29 03:49:00,
2013-10-28 20:54:00,47.2,30.8,29.78,North,0,0.0,0.0,53,0.00,,,0.00,WUHU216HW,2013-10-29 03:54:00,
2013-10-28 20:59:00,47.0,30.7,29.78,North,0,0.0,0.0,53,0.00,,,0.00,WUHU216HW,2013-10-29 03:59:00,
2013-10-28 21:01:00,47.0,30.7,29.78,North,0,0.0,0.0,53,0.00,,,0.00,WUHU216HW,2013-10-29 04:01:00,
2013-10-28 21:06:00,47.0,30.7,29.78,North,0,0.0,0.0,53,0.00,,,0.00,WUHU216HW,2013-10-29 04:06:00,
2013-10-28 21:11:00,46.8,30.5,29.78,North,0,0.0,0.0,53,0.00,,,0.00,WUHU216HW,2013-10-29 04:11:00,
2013-10-28 21:16:00,46.8,30.5,29.78,North,0,0.0,0.0,53,0.00,,,0.00,WUHU216HW,2013-10-29 04:16:00,
2013-10-28 21:21:00,46.8,31.0,29.78,North,0,0.0,0.0,54,0.00,,,0.00,WUHU216HW,2013-10-29 04:21:00,
2013-10-28 21:26:00,46.8,31.0,29.78,North,0,0.0,0.0,54,0.00,,,0.00,WUHU216HW,2013-10-29 04:26:00,
2013-10-28 21:31:00,46.6,30.8,29.78,North,0,0.0,0.0,54,0.00,,,0.00,WUHU216HW,2013-10-29 04:31:00,
2013-10-28 21:36:00,46.6,30.8,29.78,North,0,0.0,0.0,54,0.00,,,0.00,WUHU216HW,2013-10-29 04:36:00,
2013-10-28 21:41:00,46.6,30.8,29.78,North,0,0.0,0.0,54,0.00,,,0.00,WUHU216HW,2013-10-29 04:41:00,
2013-10-28 21:46:00,46.6,30.3,29.78,North,0,0.0,0.0,53,0.00,,,0.00,WUHU216HW,2013-10-29 04:46:00,
2013-10-28 21:51:00,46.4,30.6,29.78,North,0,0.0,0.0,54,0.00,,,0.00,WUHU216HW,2013-10-29 04:51:00,
2013-10-28 21:56:00,46.4,31.1,29.78,North,0,0.0,0.0,55,0.00,,,0.00,WUHU216HW,2013-10-29 04:56:00,
2013-10-28 22:01:00,46.4,31.1,29.78,North,0,0.0,0.0,55,0.00,,,0.00,WUHU216HW,2013-10-29 05:01:00,
2013-10-28 22:06:00,46.4,31.1,29.79,North,0,0.0,0.0,55,0.00,,,0.00,WUHU216HW,2013-10-29 05:06:00,
2013-10-28 22:11:00,46.4,31.1,29.78,North,0,0.0,0.0,55,0.00,,,0.00,WUHU216HW,2013-10-29 05:11:00,
2013-10-28 22:16:00,46.3,30.9,29.78,North,0,0.0,0.0,55,0.00,,,0.00,WUHU216HW,2013-10-29 05:16:00,
2013-10-28 22:21:00,46.3,30.9,29.78,North,0,0.0,0.0,55,0.00,,,0.00,WUHU216HW,2013-10-29 05:21:00,
2013-10-28 22:26:00,46.1,31.1,29.78,North,0,0.0,0.0,56,0.00,,,0.00,WUHU216HW,2013-10-29 05:26:00,
2013-10-28 22:31:00,46.1,31.1,29.78,North,0,0.0,0.0,56,0.00,,,0.00,WUHU216HW,2013-10-29 05:31:00,
2013-10-28 22:36:00,46.1,31.1,29.78,North,0,0.0,0.0,56,0.00,,,0.00,WUHU216HW,2013-10-29 05:36:00,
2013-10-28 22:41:00,46.1,31.6,29.78,North,0,0.0,0.0,57,0.00,,,0.00,WUHU216HW,2013-10-29 05:41:00,
2013-10-28 22:46:00,46.1,31.6,29.78,North,0,0.0,0.0,57,0.00,,,0.00,WUHU216HW,2013-10-29 05:46:00,
2013-10-28 22:51:00,46.3,31.8,29.78,North,0,0.0,0.0,57,0.00,,,0.00,WUHU216HW,2013-10-29 05:51:00,
2013-10-28 22:56:00,46.1,31.6,29.78,North,0,0.0,0.0,57,0.00,,,0.00,WUHU216HW,2013-10-29 05:56:00,
2013-10-28 23:01:00,46.1,31.6,29.77,North,0,0.0,0.0,57,0.00,,,0.00,WUHU216HW,2013-10-29 06:01:00,
2013-10-28 23:06:00,45.9,31.5,29.77,North,0,0.0,0.0,57,0.00,,,0.00,WUHU216HW,2013-10-29 06:06:00,
2013-10-28 23:11:00,46.1,32.0,29.77,North,0,0.0,0.0,58,0.00,,,0.00,WUHU216HW,2013-10-29 06:11:00,
2013-10-28 23:16:00,45.9,32.0,29.77,North,0,0.0,0.0,58,0.00,,,0.00,WUHU216HW,2013-10-29 06:16:00,
2013-10-28 23:21:00,45.7,31.8,29.77,North,0,0.0,0.0,58,0.00,,,0.00,WUHU216HW,2013-10-29 06:21:00,
2013-10-28 23:26:00,45.7,32.2,29.77,North,0,0.0,0.0,59,0.00,,,0.00,WUHU216HW,2013-10-29 06:26:00,
2013-10-28 23:31:00,45.7,32.2,29.77,North,0,0.0,0.0,59,0.00,,,0.00,WUHU216HW,2013-10-29 06:31:00,
2013-10-28 23:36:00,45.7,32.2,29.76,North,0,0.0,0.0,59,0.00,,,0.00,WUHU216HW,2013-10-29 06:36:00,
2013-10-28 23:41:00,45.7,32.7,29.77,North,0,0.0,0.0,60,0.00,,,0.00,WUHU216HW,2013-10-29 06:41:00,
2013-10-28 23:46:00,45.7,32.7,29.77,North,0,0.0,0.0,60,0.00,,,0.00,WUHU216HW,2013-10-29 06:46:00,
2013-10-28 23:51:00,45.7,33.0,29.77,North,0,0.0,0.0,61,0.00,,,0.00,WUHU216HW,2013-10-29 06:51:00,
2013-10-28 23:56:00,45.4,32.7,29.77,North,0,0.0,0.0,61,0.00,,,0.00,WUHU216HW,2013-10-29 06:56:00,